FW4741 Weather Reports


Display with metric or nautical units.
time (UTC)temp
F
wind
direction
speed
MPH
gust
MPH
rain 1hr
in
rain 24hr
in
rain mn
in
humidity
%
barometer
mb
20260902095103 63 77 2.0 6.0 0.00 0.00 0.00 80 1024.7
20260902094103 63 77 2.0 6.0 0.00 0.00 0.00 81 1024.7
20260902093603 63 77 2.0 6.0 0.00 0.00 0.00 81 1024.7
20260902093103 63 77 2.0 6.0 0.00 0.00 0.00 81 1024.7
20260902091602 64 77 2.0 6.0 0.00 0.00 0.00 79 1024.8
20260902091103 64 77 2.0 6.0 0.00 0.00 0.00 78 1024.8
20260902090602 64 77 2.0 6.0 0.00 0.00 0.00 78 1024.9
20260902085603 64 77 2.0 6.0 0.00 0.00 0.00 78 1024.9
20260902085102 64 77 2.0 6.0 0.00 0.00 0.00 79 1024.9
20260902084603 64 77 2.0 6.0 0.00 0.00 0.00 79 1024.9
20260902084103 64 77 2.0 6.0 0.00 0.00 0.00 79 1024.9
20260902083602 64 77 2.0 6.0 0.00 0.00 0.00 79 1024.9
20260902083103 64 77 2.0 6.0 0.00 0.00 0.00 79 1024.9
20260902082603 64 77 2.0 6.0 0.00 0.00 0.00 78 1024.9
20260902082102 64 77 2.0 6.0 0.00 0.00 0.00 78 1024.9
20260902081603 64 77 2.0 6.0 0.00 0.00 0.00 78 1024.9
20260902081103 64 77 2.0 6.0 0.00 0.00 0.00 78 1024.9
20260902075603 65 77 2.0 6.0 0.00 0.00 0.00 78 1024.9
20260902075103 65 77 2.0 6.0 0.00 0.00 0.00 78 1024.9
20260902074603 65 77 2.0 6.0 0.00 0.00 0.00 78 1024.9
20260902073603 65 77 2.0 6.0 0.00 0.00 0.00 78 1024.9
20260902073103 65 77 2.0 6.0 0.00 0.00 0.00 78 1025.0
20260902072603 65 77 2.0 6.0 0.00 0.00 0.00 78 1025.0
20260902071603 65 77 2.0 6.0 0.00 0.00 0.00 79 1025.1
20260902071102 65 77 2.0 6.0 0.00 0.00 0.00 78 1025.1
20260902070602 65 77 2.0 6.0 0.00 0.00 0.00 78 1025.1
20260902065603 65 77 2.0 6.0 0.00 0.00 0.00 78 1025.2
20260902065102 65 77 2.0 6.0 0.00 0.00 0.00 78 1025.2
20260902064103 65 77 2.0 6.0 0.00 0.00 0.00 78 1025.3
20260902063602 65 77 2.0 6.0 0.00 0.00 0.00 77 1025.3
20260902063103 65 77 2.0 6.0 0.00 0.00 0.00 78 1025.3
20260902062602 65 77 2.0 6.0 0.00 0.00 0.00 78 1025.3
20260902062103 65 77 2.0 6.0 0.00 0.00 0.00 78 1025.3
20260902061103 66 77 2.0 6.0 0.00 0.00 0.00 77 1025.3
20260902060603 66 77 2.0 6.0 0.00 0.00 0.00 77 1025.3
20260902055603 65 77 2.0 6.0 0.00 0.00 0.00 78 1025.3
20260902055102 65 77 2.0 6.0 0.00 0.00 0.00 78 1025.3
20260902054603 65 77 2.0 6.0 0.00 0.00 0.00 78 1025.3
20260902054103 65 77 2.0 6.0 0.00 0.00 0.00 78 1025.3
20260902053103 65 77 2.0 6.0 0.00 0.00 0.00 81 1025.3
20260902052602 65 77 2.0 6.0 0.00 0.00 0.00 81 1025.4
20260902052103 65 77 2.0 6.0 0.00 0.00 0.00 82 1025.4
20260902051603 65 77 2.0 6.0 0.00 0.00 0.00 82 1025.4
20260902051103 65 77 2.0 6.0 0.00 0.00 0.00 82 1025.4
20260902045603 65 77 2.0 6.0 0.00 0.00 0.00 82 1025.4
20260902044603 65 77 2.0 6.0 0.00 0.00 0.00 83 1025.4
20260902044103 65 77 2.0 6.0 0.00 0.00 0.00 83 1025.4
20260902043603 65 77 2.0 6.0 0.00 0.00 0.00 82 1025.4
20260902043104 65 77 2.0 6.0 0.00 0.00 0.00 82 1025.4
20260902042602 65 77 2.0 6.0 0.00 0.00 0.00 82 1025.3
20260902042102 65 77 2.0 6.0 0.00 0.00 0.00 82 1025.3
20260902041603 65 77 2.0 6.0 0.00 0.00 0.00 83 1025.3
20260902041103 65 77 2.0 6.0 0.00 0.00 0.00 83 1025.3
20260902035603 65 77 2.0 6.0 0.00 0.00 0.00 83 1025.2
20260902035103 65 77 2.0 6.0 0.00 0.00 0.00 83 1025.2
20260902034603 65 77 2.0 6.0 0.00 0.00 0.00 84 1025.2
20260902034102 65 77 2.0 6.0 0.00 0.00 0.00 83 1025.1
20260902033603 65 77 2.0 6.0 0.00 0.00 0.00 83 1025.1
20260902033103 65 77 2.0 6.0 0.00 0.00 0.00 84 1025.1
20260902032602 65 77 2.0 6.0 0.00 0.00 0.00 84 1025.1
20260902032103 65 77 2.0 6.0 0.00 0.00 0.00 83 1025.0
20260902031603 65 77 2.0 6.0 0.00 0.00 0.00 82 1024.9
20260902031103 65 77 2.0 6.0 0.00 0.00 0.00 82 1024.9
20260902030603 65 77 2.0 6.0 0.00 0.00 0.00 82 1024.9
20260902030103 65 77 2.0 6.0 0.00 0.00 0.00 82 1024.8
20260902025604 65 77 2.0 6.0 0.00 0.00 0.00 81 1024.7
20260902025103 65 77 2.0 6.0 0.00 0.00 0.00 81 1024.6
20260902024602 65 77 2.0 6.0 0.00 0.00 0.00 81 1024.6
20260902024103 66 77 2.0 6.0 0.00 0.00 0.00 81 1024.5
20260902023602 66 77 2.0 6.0 0.00 0.00 0.00 81 1024.5
20260902023102 66 77 2.0 6.0 0.00 0.00 0.00 80 1024.4
20260902022603 66 77 2.0 6.0 0.00 0.00 0.00 80 1024.3
20260902022103 66 77 2.0 6.0 0.00 0.00 0.00 80 1024.3
20260902021603 66 77 2.0 6.0 0.00 0.00 0.00 80 1024.3
20260902020603 66 77 2.0 6.0 0.00 0.00 0.00 80 1024.2
20260902015103 67 77 2.0 6.0 0.00 0.00 0.00 79 1024.0
20260902013603 67 77 2.0 6.0 0.00 0.00 0.00 79 1023.9
20260902012102 68 77 2.0 6.0 0.00 0.00 0.00 76 1023.7
20260902011603 68 77 2.0 6.0 0.00 0.00 0.00 76 1023.7
20260902011103 68 77 2.0 6.0 0.00 0.00 0.00 76 1023.7
20260902010602 68 77 2.0 6.0 0.00 0.00 0.00 76 1023.7
20260902005602 68 77 2.0 6.0 0.00 0.00 0.00 76 1023.6
20260902005103 68 77 2.0 6.0 0.00 0.00 0.00 76 1023.5
20260902004603 68 77 2.0 6.0 0.00 0.00 0.00 75 1023.5
20260902004103 68 77 2.0 6.0 0.00 0.00 0.00 75 1023.4
20260902003603 68 77 2.0 6.0 0.00 0.00 0.00 75 1023.4
20260902003103 68 77 2.0 6.0 0.00 0.00 0.00 75 1023.4
20260902001603 68 77 2.0 6.0 0.00 0.00 0.00 76 1023.4
20260902001102 68 77 2.0 6.0 0.00 0.00 0.00 77 1023.3
20260902000602 68 77 2.0 6.0 0.00 0.00 0.00 77 1023.3
20260901235602 69 77 2.0 6.0 0.00 0.00 0.00 75 1023.2
20260901234602 69 77 2.0 6.0 0.00 0.00 0.00 73 1023.2
20260901234102 69 77 2.0 6.0 0.00 0.00 0.00 72 1023.2
20260901233603 69 77 2.0 6.0 0.00 0.00 0.00 72 1023.2
20260901233103 69 77 2.0 6.0 0.00 0.00 0.00 71 1023.2
20260901232603 70 77 2.0 6.0 0.00 0.00 0.00 71 1023.2
20260901232103 70 77 2.0 6.0 0.00 0.00 0.00 72 1023.1
20260901231604 70 77 2.0 6.0 0.00 0.00 0.00 72 1023.1
20260901231102 70 77 2.0 6.0 0.00 0.00 0.00 72 1023.1
20260901230602 70 77 2.0 6.0 0.00 0.00 0.00 72 1023.1
20260901225603 70 77 2.0 6.0 0.00 0.00 0.00 73 1023.1
20260901225102 70 77 2.0 6.0 0.00 0.00 0.00 73 1023.0
20260901224603 71 77 2.0 6.0 0.00 0.00 0.00 72 1023.0
20260901223602 73 77 2.0 6.0 0.00 0.00 0.00 71 1022.8
20260901223103 73 77 2.0 6.0 0.00 0.00 0.00 69 1022.8
20260901222602 73 77 2.0 6.0 0.00 0.00 0.00 69 1022.8
20260901222103 73 77 2.0 6.0 0.00 0.00 0.00 69 1022.8
20260901221603 74 77 2.0 6.0 0.00 0.00 0.00 69 1022.8
20260901221103 74 77 2.0 6.0 0.00 0.00 0.00 66 1022.9
20260901220603 74 77 2.0 6.0 0.00 0.00 0.00 66 1022.8
20260901215603 73 77 2.0 6.0 0.00 0.00 0.00 71 1022.9
20260901215103 74 77 2.0 6.0 0.00 0.00 0.00 70 1023.0
20260901214603 75 77 2.0 6.0 0.00 0.00 0.00 68 1023.0
20260901214102 76 77 2.0 6.0 0.00 0.00 0.00 61 1023.1
20260901213602 76 77 2.0 6.0 0.00 0.00 0.00 60 1023.0
20260901212603 76 77 2.0 6.0 0.00 0.00 0.00 59 1023.1
20260901212102 75 77 2.0 6.0 0.00 0.00 0.00 60 1023.1
20260901211603 75 77 2.0 6.0 0.00 0.00 0.00 62 1023.1
20260901211103 74 77 2.0 6.0 0.00 0.00 0.00 63 1023.2
20260901210602 74 77 2.0 6.0 0.00 0.00 0.00 64 1023.2
20260901205103 73 77 2.0 6.0 0.00 0.00 0.00 67 1023.2
20260901204602 73 77 2.0 6.0 0.00 0.00 0.00 67 1023.2
20260901204103 74 77 2.0 6.0 0.00 0.00 0.00 67 1023.3
20260901203102 74 77 2.0 6.0 0.00 0.00 0.00 68 1023.4
20260901202102 75 77 2.0 6.0 0.00 0.00 0.00 66 1023.4
20260901201602 75 77 2.0 6.0 0.00 0.00 0.00 66 1023.4
20260901200603 75 77 2.0 6.0 0.00 0.00 0.00 65 1023.5
20260901195603 75 77 2.0 6.0 0.00 0.00 0.00 65 1023.6
20260901195103 75 77 2.0 6.0 0.00 0.00 0.00 64 1023.6
20260901194603 74 77 2.0 6.0 0.00 0.00 0.00 66 1023.7
20260901194103 74 77 2.0 6.0 0.00 0.00 0.00 66 1023.7
20260901193102 74 77 2.0 6.0 0.00 0.00 0.00 64 1023.8
20260901192602 74 77 2.0 6.0 0.00 0.00 0.00 65 1023.8
20260901192103 75 77 2.0 6.0 0.00 0.00 0.00 63 1024.0
20260901191103 75 77 2.0 6.0 0.00 0.00 0.00 65 1024.0
20260901190103 75 77 2.0 6.0 0.00 0.00 0.00 65 1024.1
20260901185606 74 77 2.0 6.0 0.00 0.00 0.00 65 1024.1
20260901185103 74 77 2.0 6.0 0.00 0.00 0.00 65 1024.1
20260901184102 74 77 2.0 6.0 0.00 0.00 0.00 65 1024.2
20260901183603 74 77 2.0 6.0 0.00 0.00 0.00 65 1024.2
20260901183102 74 77 2.0 6.0 0.00 0.00 0.00 63 1024.2
20260901182103 75 77 2.0 6.0 0.00 0.00 0.00 62 1024.2
20260901181602 75 77 2.0 6.0 0.00 0.00 0.00 63 1024.3
20260901181103 74 77 2.0 6.0 0.00 0.00 0.00 61 1024.3
20260901180603 74 77 2.0 6.0 0.00 0.00 0.00 60 1024.2
20260901175602 74 77 2.0 6.0 0.00 0.00 0.00 61 1024.3
20260901175102 74 77 2.0 6.0 0.00 0.00 0.00 60 1024.3
20260901174602 74 77 2.0 6.0 0.00 0.00 0.00 60 1024.3
20260901174103 75 77 2.0 6.0 0.00 0.00 0.00 60 1024.3
20260901173602 75 77 2.0 6.0 0.00 0.00 0.00 61 1024.3
20260901173103 75 77 2.0 6.0 0.00 0.00 0.00 58 1024.3
20260901172603 74 77 2.0 6.0 0.00 0.00 0.00 59 1024.3
20260901172103 74 77 2.0 6.0 0.00 0.00 0.00 62 1024.3
20260901171603 74 77 2.0 6.0 0.00 0.00 0.00 61 1024.4
20260901171102 74 77 2.0 6.0 0.00 0.00 0.00 60 1024.4
20260901165102 74 77 2.0 6.0 0.00 0.00 0.00 61 1024.4
20260901164103 74 77 2.0 6.0 0.00 0.00 0.00 61 1024.4
20260901163103 73 77 2.0 6.0 0.00 0.00 0.00 62 1024.4
20260901162603 73 77 2.0 6.0 0.00 0.00 0.00 62 1024.4
20260901162103 73 77 2.0 6.0 0.00 0.00 0.00 63 1024.4
20260901161603 72 77 2.0 6.0 0.00 0.00 0.00 66 1024.4
20260901160603 72 77 2.0 6.0 0.00 0.00 0.00 62 1024.4
20260901155103 70 77 2.0 6.0 0.00 0.00 0.00 68 1024.4
20260901154602 70 77 2.0 6.0 0.00 0.00 0.00 67 1024.4
20260901154103 70 77 2.0 6.0 0.00 0.00 0.00 67 1024.5
20260901153602 69 77 2.0 6.0 0.00 0.00 0.00 68 1024.5
20260901153103 68 77 2.0 6.0 0.00 0.00 0.00 69 1024.5
20260901152602 68 77 2.0 6.0 0.00 0.00 0.00 70 1024.6
20260901152102 68 77 2.0 6.0 0.00 0.00 0.00 70 1024.6
20260901151602 67 77 2.0 6.0 0.00 0.00 0.00 71 1024.6
20260901151103 67 77 2.0 6.0 0.00 0.00 0.00 72 1024.6
20260901150602 67 77 2.0 6.0 0.00 0.00 0.00 71 1024.5
20260901145603 66 77 2.0 6.0 0.00 0.00 0.00 74 1024.5
20260901145102 65 77 2.0 6.0 0.00 0.00 0.00 74 1024.5
20260901144603 65 77 2.0 6.0 0.00 0.00 0.00 76 1024.5
20260901144102 65 77 2.0 6.0 0.00 0.00 0.00 76 1024.5
20260901143603 64 77 2.0 6.0 0.00 0.00 0.00 77 1024.5
20260901143103 64 77 2.0 6.0 0.00 0.00 0.00 77 1024.4
20260901142603 64 77 2.0 6.0 0.00 0.00 0.00 77 1024.4
20260901142103 63 77 2.0 6.0 0.00 0.00 0.00 78 1024.4
20260901141602 63 77 2.0 6.0 0.00 0.00 0.00 79 1024.4
20260901141103 62 77 2.0 6.0 0.00 0.00 0.00 79 1024.4
20260901134603 61 77 2.0 6.0 0.00 0.00 0.00 83 1024.4
20260901133602 60 77 2.0 6.0 0.00 0.00 0.00 84 1024.4
20260901133102 60 77 2.0 6.0 0.00 0.00 0.00 84 1024.4
20260901132103 60 77 2.0 6.0 0.00 0.00 0.00 84 1024.4
20260901131603 60 77 2.0 6.0 0.00 0.00 0.00 84 1024.4
20260901131103 60 77 2.0 6.0 0.00 0.00 0.00 84 1024.3
20260901130603 60 77 2.0 6.0 0.00 0.00 0.00 84 1024.3
20260901125603 60 77 2.0 6.0 0.00 0.00 0.00 84 1024.3
20260901125102 60 77 2.0 6.0 0.00 0.00 0.00 84 1024.4
20260901124602 60 77 2.0 6.0 0.00 0.00 0.00 84 1024.4
20260901124102 60 77 2.0 6.0 0.00 0.00 0.00 84 1024.4
20260901123603 60 77 2.0 6.0 0.00 0.00 0.00 84 1024.4
20260901123103 60 77 2.0 6.0 0.00 0.00 0.00 83 1024.4
20260901122603 60 77 2.0 6.0 0.00 0.00 0.00 84 1024.4
20260901122103 60 77 2.0 6.0 0.00 0.00 0.00 84 1024.4
20260901121603 60 77 2.0 6.0 0.00 0.00 0.00 85 1024.4
20260901121103 59 77 2.0 6.0 0.00 0.00 0.00 85 1024.4
20260901120603 59 77 2.0 6.0 0.00 0.00 0.00 85 1024.4
20260901115602 58 77 2.0 6.0 0.00 0.00 0.00 87 1024.3
20260901115103 58 77 2.0 6.0 0.00 0.00 0.00 88 1024.3
20260901114602 58 77 2.0 6.0 0.00 0.00 0.00 88 1024.2
20260901114103 58 77 2.0 6.0 0.00 0.00 0.00 88 1024.2
20260901113602 58 77 2.0 6.0 0.00 0.00 0.00 88 1024.2
20260901113103 58 77 2.0 6.0 0.00 0.00 0.00 88 1024.2
20260901112603 58 77 2.0 6.0 0.00 0.00 0.00 88 1024.2
20260901112103 58 77 2.0 6.0 0.00 0.00 0.00 88 1024.2
20260901111603 59 77 2.0 6.0 0.00 0.00 0.00 87 1024.2
20260901111103 59 77 2.0 6.0 0.00 0.00 0.00 87 1024.3
20260901105603 59 77 2.0 6.0 0.00 0.00 0.00 86 1024.3
20260901105104 59 77 2.0 6.0 0.00 0.00 0.00 86 1024.3
20260901104103 59 77 2.0 6.0 0.00 0.00 0.00 86 1024.3
20260901103102 60 77 2.0 6.0 0.00 0.00 0.00 86 1024.3
20260901102603 60 77 2.0 6.0 0.00 0.00 0.00 86 1024.3
20260901101602 60 77 2.0 6.0 0.00 0.00 0.00 87 1024.3
20260901101103 60 77 2.0 6.0 0.00 0.00 0.00 86 1024.3
20260901100603 60 77 2.0 6.0 0.00 0.00 0.00 86 1024.3
20260901095602 60 77 2.0 6.0 0.00 0.00 0.00 85 1024.4